Location: Bothwell
(42.3833°S, 147.0000°E)
Time: 09:36:12
(UTC+10:00)

UNISAT 6 - Pass Details

Date: 10 August 2024
Orbit: 589 x 662 km, 97.7° (Epoch: 14 September)

Event Time Altitude Azimuth Distance (km) Brightness Sun altitude
Rises 03:42:56 0° 151° (SSE) 3,042 ? -38.7°
Reaches altitude 10° 03:45:50 10° 132° (SE) 2,121 ? -38.2°
Enters shadow 03:48:46 18° 93° (E) 1,627 ? -37.6°
